Préparation du vol

Réserver un ULM chez EFU                     Découvrir nos appareils                     Coordonnées de l'école

Available data for LFPN from the past hour

METAR
LFPN 091100Z AUTO 31019KT 9999 BKN032 09/05 Q1008 TEMPO 30020G35KT SCT020TCU
LFPN 091030Z AUTO 31022G35KT 9999 FEW029 SCT038 BKN045 09/05 Q1007 TEMPO SCT020TCU
TAF
TAF LFPN 090800Z 0909/0918 28015G25KT 9999 BKN020 TEMPO 0909/0911 28020G35KT 4000 SHRA SCT020CB PROB40 TEMPO 0911/0915 30020G35KT -SHRA SCT020TCU

Pour avoir des informations détaillée sur la météo à venir vous pouvez consulter Aeroweb

prevision des pluies

Nota : Heuro locale = heure CET

[table “3” not found /]

OLIVIA

Outil en Ligne Intégré de Visualisation d'Informations Aéronautiques

OLIVIA